Location: Newark
(43.4306°N, 0.3089°E)
Time: 22:28:07
(UTC+00:00)

A-11 Canister half - Visible Passes

Search period start: 25 August 2019 00:00
Search period end: 04 September 2019 00:00
Orbit: 1514 x 1686 km, 47.2° (Epoch: 24 August)

Date Brightness Start Highest point End Pass type
(mag) Time Alt. Az. Time Alt. Az. Time Alt. Az.
25 Aug 9.3 18:58:11 10° W 19:07:39 75° N 19:17:31 10° ENE visible
25 Aug 9.1 21:03:40 10° WNW 21:13:20 78° NNE 21:19:12 29° E visible
25 Aug 9.2 23:08:45 10° WNW 23:17:21 58° WSW 23:17:21 58° WSW visible
26 Aug 10.9 01:15:26 10° W 01:15:30 10° W 01:15:30 10° W visible
26 Aug 9.1 20:40:44 10° WNW 20:50:22 77° NNE 20:57:01 25° E visible
26 Aug 9.1 22:45:50 10° WNW 22:55:10 62° SW 22:55:10 62° SW visible
27 Aug 10.8 00:52:15 10° W 00:53:19 13° W 00:53:19 13° W visible
27 Aug 9.2 20:17:48 10° WNW 20:27:23 75° N 20:34:53 20° E visible
27 Aug 9.0 22:22:54 10° WNW 22:32:28 65° SW 22:33:02 64° SSW visible
28 Aug 10.7 00:29:06 10° W 00:31:12 15° W 00:31:12 15° W visible
28 Aug 9.2 19:54:52 10° WNW 20:04:25 74° N 20:12:47 16° E visible
28 Aug 9.0 21:59:58 10° WNW 22:09:33 68° SSW 22:10:57 62° S visible
29 Aug 10.6 00:05:59 10° W 00:09:06 18° W 00:09:06 18° W visible
29 Aug 9.2 19:31:55 10° WNW 19:41:27 73° N 19:50:45 12° E visible
29 Aug 9.0 21:37:03 10° WNW 21:46:38 71° SSW 21:48:54 56° SSE visible
29 Aug 10.4 23:42:54 10° WNW 23:47:04 22° W 23:47:04 22° W visible
30 Aug 9.2 19:08:59 10° WNW 19:18:29 73° N 19:28:20 10° E visible
30 Aug 9.0 21:14:07 10° WNW 21:23:43 73° SSW 21:26:54 48° SE visible
30 Aug 10.3 23:19:50 10° WNW 23:25:05 25° WSW 23:25:05 25° WSW visible
31 Aug 9.0 20:51:13 10° WNW 21:00:47 76° SSW 21:04:57 40° SE visible
31 Aug 10.1 22:56:48 10° WNW 23:03:08 28° WSW 23:03:08 28° WSW visible
01 Sep 9.0 20:28:17 10° WNW 20:37:52 79° SSW 20:43:02 33° SE visible
01 Sep 10.0 22:33:47 10° WNW 22:41:13 31° SW 22:41:13 31° SW visible
02 Sep 9.0 20:05:23 10° WNW 20:14:56 81° SSW 20:21:10 27° ESE visible
02 Sep 9.8 22:10:46 10° WNW 22:19:05 34° SW 22:19:21 34° SW visible
03 Sep 9.1 19:42:28 10° WNW 19:52:00 84° SSW 19:59:21 21° ESE visible
03 Sep 9.8 21:47:47 10° WNW 21:56:13 36° SW 21:57:32 34° SSW visible
